Погода в Севске

Россия / Брянская область     52°09′21″N   34°29′42″E
темп.,
°C
ветер,
м/с
пор.,
м/с
влажн.,
%
обл.,
%
осадки,
мм/ч
давл.,
гПа
погр.,
м
16 апреля, пт
пт1600:00+11юв347097 0.0 101290
03:00+8юв389118 0.0 1012196
06:00+6юв49955 0.0 1013312
09:00+9юв497782 0.0 1014716
12:00+12юв7960100 0.2 10141594
15:00+11юв686589 0.4 10151348
18:00+11юв576881 0.3 1015995
21:00+7вюв378512 0.4 1016140
17 апреля, сб
сб1700:00+6вюв368940 0.1 1016126
03:00+5вюв34935 0.1 101767
06:00+4юв249576 0.0 101869
09:00+7ююз1180100 0.0 1018257
12:00+10сз2370100 0.3 10171145
15:00+7с2391100 3.1 1017268
18:00+6юз2495100 3.8 1016230
21:00+7ююз3595100 8.0 1016304
18 апреля, вс
вс1800:00+6ююз5695100 13.6 1015784
03:00+5ю6996100 24.7 1014749
06:00+4ююв71296100 11.4 1015773
09:00+5юв61192100 14.5 1016794
12:00+5юв5994100 1.7 10161107
15:00+6вюв4795100 6.6 1016907
18:00+5юв3495100 1.1 1016476
21:00+5св3695100 1.4 1017301
19 апреля, пн
пн1900:00+5св2397100 0.7 1016122
03:00+5с2497100 1.0 1016145
06:00+6всв0194100 0.2 101517
09:00+7вюв228693 0.3 1016368
12:00+10ююв336791 0.3 10151187
15:00+11ююв456383 0.6 10151417
18:00+10ююв236726 0.1 1014568
21:00+7всв337935 0.1 101425
20 апреля, вт
вт2000:00+7в41286100 0.0 1012275
03:00+7в61486100 0.1 1010391
06:00+7всв91692100 1.3 1006794
09:00+7всв112192100 7.4 1001814
12:00+7всв112092100 10.3 9971110
15:00+10вюв61194100 12.3 994600
18:00+12ююв6117753 1.1 994623
21:00+9юв41090100 1.7 995318